Home > Weather > Celje > Past weeks

Flag for Slovenia Past Weather in Celje, Slovenia — Yesterday and Last 2 Weeks

Now
61 °F

Cool.


Feels Like: 61 °F
Forecast: 57 / 71 °F
Wind: 1 mph from Northeast

Location: Celje

Current Time: May 29, 2016 at 8:02:38 AM

Latest Report: May 29, 2016 at 7:00 AM


Visibility: N/A

Pressure: 29.80 "Hg

Humidity: 83%

Dew Point: 56 °F

Location of CeljeLocation

Past Weather in Celje — Graph

°F

Celje Temperature Yesterday

Maximum temperature yesterday: 84 °F (at 4:00 PM)
Minimum temperature yesterday: 53 °F (at 5:00 AM)
Average temperature yesterday: 69 °F

High & Low Weather Summary for the Past Weeks

 TemperatureHumidityPressure
High84 °F (May 28, 4:00 PM)98% (May 16, 6:00 AM)30.17 "Hg (May 16, 6:00 AM)
Low38 °F (May 17, 5:00 AM)35% (May 21, 6:00 PM)29.56 "Hg (May 14, 6:00 AM)
Average59 °F72%29.94 "Hg
* Reported May 14 6:00 AM — May 29 6:00 AM, Celje, Weather by CustomWeather, © 2016

Note: Actual official high and low records may vary slightly from our data, if they occured in-between our weather recording intervals... More about our weather records

Advertising

Celje Weather History for the Previous 24 Hours

Scroll right to see more
 ConditionsComfort  
Time TempWeatherWind HumidityBarometerVisibility
6:00 AM
Sun, May 29
62 °FCool.1 mph75%29.80 "HgN/A
5:00 AM63 °FMild.2 mph68%29.80 "HgN/A
4:00 AM62 °FCool.2 mph72%29.82 "HgN/A
3:00 AM62 °FCool.1 mph77%29.83 "HgN/A
2:00 AM62 °FCool.1 mph80%29.85 "HgN/A
1:00 AM67 °FMild.1 mph68%29.85 "HgN/A
12:00 AM71 °FMild.6 mph55%29.86 "HgN/A
11:00 PM
Sat, May 28
71 °FMild.3 mph57%29.86 "HgN/A
10:00 PM68 °FMild.3 mph65%29.85 "HgN/A
9:00 PM69 °FMild.1 mph66%29.84 "HgN/A
8:00 PM77 °FScattered clouds.5 mph47%29.83 "Hg31 mi
7:00 PM81 °FWarm.5 mph42%29.82 "HgN/A
6:00 PM82 °FWarm.6 mph42%29.80 "HgN/A
5:00 PM84 °FPleasantly warm.6 mph40%29.81 "HgN/A
4:00 PM84 °FPleasantly warm.6 mph39%29.83 "HgN/A
3:00 PM83 °FPassing clouds.3 mph39%29.85 "Hg31 mi
2:00 PM83 °FPassing clouds.3 mph40%29.86 "Hg31 mi
1:00 PM81 °FWarm.5 mph42%29.87 "HgN/A
12:00 PM79 °FWarm.3 mph41%29.89 "HgN/A
11:00 AM77 °FWarm.1 mph50%29.90 "HgN/A
9:00 AM68 °FMild.1 mph57%29.95 "HgN/A
8:00 AM62 °FPassing clouds.No wind77%29.96 "Hg31 mi
Weather by CustomWeather, © 2016

See weather overviewHow to use our weather pages